When you browse on this site, cookies collect data to enhance your experience and personalize the content and advertising you see.
Visit our Privacy Policy to learn more. By continuing to use the site, you agree to this use of cookies and data.
  • In Österreich
  • Länderverzeichnis
  • Für 7 Tage
  • Wassertemperatur
  • Wetterkarte
  • News
  • Widgets
  • user-avatar
    Anmelden

    Stündliche Wetter Dortmund

    Heute, 29 Mai, Freitag

    Zeit Temperatur Niederschläge Wind Luftdruck Luftfeuchtigkeit
    00:00 +9°C° 0 mm 2 m/S 764 mmHg 87%
    01:00 +8°C° 0 mm 2 m/S 764 mmHg 88%
    02:00 +8°C° 0 mm 2 m/S 764 mmHg 90%
    03:00 +8°C° 0 mm 2 m/S 764 mmHg 91%
    04:00 +10°C° 0 mm 1 m/S 764 mmHg 86%
    05:00 +11°C° 0 mm 1 m/S 764 mmHg 82%
    06:00 +13°C° 0 mm 1 m/S 764 mmHg 77%
    07:00 +15°C° 0 mm 2 m/S 763 mmHg 68%
    08:00 +16°C° 0 mm 2 m/S 763 mmHg 59%
    09:00 +18°C° 0 mm 3 m/S 763 mmHg 50%
    10:00 +19°C° 0 mm 3 m/S 763 mmHg 47%
    11:00 +20°C° 0 mm 3 m/S 762 mmHg 44%
    12:00 +21°C° 0 mm 4 m/S 762 mmHg 40%
    13:00 +21°C° 0 mm 4 m/S 761 mmHg 41%
    14:00 +21°C° 0 mm 4 m/S 761 mmHg 41%
    15:00 +21°C° 0 mm 4 m/S 761 mmHg 41%
    16:00 +20°C° 0 mm 4 m/S 760 mmHg 45%
    17:00 +19°C° 0 mm 4 m/S 760 mmHg 49%
    18:00 +18°C° 0 mm 4 m/S 760 mmHg 53%
    19:00 +17°C° 0 mm 3 m/S 760 mmHg 59%
    20:00 +14°C° 0 mm 3 m/S 760 mmHg 64%
    21:00 +13°C° 0 mm 3 m/S 761 mmHg 70%
    22:00 +13°C° 0 mm 2 m/S 761 mmHg 70%
    23:00 +12°C° 0 mm 2 m/S 761 mmHg 71%

    Morgen, 30 Mai, Samstag

    Zeit Temperatur Niederschläge Wind Luftdruck Luftfeuchtigkeit
    00:00 +12°C° 0 mm 2 m/S 761 mmHg 72%
    01:00 +10°C° 0 mm 2 m/S 761 mmHg 73%
    02:00 +10°C° 0 mm 2 m/S 761 mmHg 75%
    03:00 +9°C° 0 mm 2 m/S 761 mmHg 76%
    04:00 +12°C° 0 mm 2 m/S 761 mmHg 72%
    05:00 +13°C° 0 mm 2 m/S 761 mmHg 68%
    06:00 +14°C° 0 mm 2 m/S 761 mmHg 64%
    07:00 +16°C° 0 mm 3 m/S 761 mmHg 58%
    08:00 +17°C° 0 mm 3 m/S 761 mmHg 53%
    09:00 +19°C° 0 mm 4 m/S 760 mmHg 48%
    10:00 +19°C° 0 mm 4 m/S 760 mmHg 44%
    11:00 +20°C° 0 mm 5 m/S 760 mmHg 41%
    12:00 +21°C° 0 mm 5 m/S 760 mmHg 38%
    13:00 +21°C° 0 mm 5 m/S 760 mmHg 39%
    14:00 +21°C° 0 mm 5 m/S 759 mmHg 40%
    15:00 +20°C° 0 mm 5 m/S 759 mmHg 41%
    16:00 +20°C° 0 mm 5 m/S 759 mmHg 46%
    17:00 +19°C° 0 mm 4 m/S 759 mmHg 50%
    18:00 +18°C° 0 mm 4 m/S 759 mmHg 55%
    19:00 +17°C° 0 mm 3 m/S 759 mmHg 59%
    20:00 +14°C° 0 mm 3 m/S 759 mmHg 64%
    21:00 +14°C° 0 mm 2 m/S 760 mmHg 69%
    22:00 +13°C° 0 mm 2 m/S 760 mmHg 73%
    23:00 +13°C° 0 mm 2 m/S 760 mmHg 78%

    übermorgen, 31 Mai, Sonntag

    Zeit Temperatur Niederschläge Wind Luftdruck Luftfeuchtigkeit
    00:00 +12°C° 0 mm 2 m/S 759 mmHg 82%
    01:00 +10°C° 0 mm 2 m/S 760 mmHg 84%
    02:00 +10°C° 0 mm 2 m/S 760 mmHg 86%
    03:00 +10°C° 0 mm 2 m/S 760 mmHg 88%
    04:00 +10°C° 0 mm 2 m/S 760 mmHg 80%
    05:00 +11°C° 0 mm 3 m/S 760 mmHg 72%
    06:00 +12°C° 0 mm 4 m/S 760 mmHg 63%
    07:00 +13°C° 0 mm 4 m/S 760 mmHg 60%
    08:00 +14°C° 0 mm 4 m/S 760 mmHg 56%
    09:00 +17°C° 0 mm 4 m/S 759 mmHg 52%
    10:00 +18°C° 0 mm 4 m/S 759 mmHg 50%
    11:00 +19°C° 0 mm 5 m/S 759 mmHg 48%
    12:00 +19°C° 0 mm 5 m/S 759 mmHg 47%
    13:00 +20°C° 0 mm 4 m/S 759 mmHg 48%
    14:00 +20°C° 0 mm 4 m/S 758 mmHg 48%
    15:00 +20°C° 0 mm 4 m/S 758 mmHg 49%
    16:00 +19°C° 0 mm 4 m/S 758 mmHg 53%
    17:00 +19°C° 0 mm 3 m/S 758 mmHg 57%
    18:00 +18°C° 0 mm 3 m/S 758 mmHg 60%
    19:00 +17°C° 0 mm 3 m/S 758 mmHg 65%
    20:00 +16°C° 0 mm 2 m/S 759 mmHg 70%
    21:00 +15°C° 0 mm 2 m/S 759 mmHg 74%
    22:00 +14°C° 0 mm 2 m/S 759 mmHg 77%
    23:00 +14°C° 0 mm 2 m/S 759 mmHg 80%

    1 Juni, Montag

    Zeit Temperatur Niederschläge Wind Luftdruck Luftfeuchtigkeit
    00:00 +13°C° 0 mm 2 m/S 759 mmHg 83%
    01:00 +12°C° 0 mm 2 m/S 759 mmHg 84%
    02:00 +12°C° 0 mm 2 m/S 759 mmHg 84%
    03:00 +10°C° 0 mm 2 m/S 759 mmHg 85%
    04:00 +12°C° 0 mm 2 m/S 759 mmHg 81%
    05:00 +13°C° 0 mm 2 m/S 759 mmHg 77%
    06:00 +14°C° 0 mm 2 m/S 758 mmHg 72%
    07:00 +16°C° 0 mm 2 m/S 758 mmHg 66%
    08:00 +18°C° 0 mm 2 m/S 758 mmHg 61%
    09:00 +20°C° 0 mm 3 m/S 758 mmHg 55%
    10:00 +21°C° 0 mm 3 m/S 758 mmHg 53%
    11:00 +22°C° 0 mm 3 m/S 758 mmHg 52%
    12:00 +25°C° 0 mm 3 m/S 757 mmHg 51%
    13:00 +25°C° 0 mm 3 m/S 757 mmHg 51%
    14:00 +25°C° 0 mm 4 m/S 757 mmHg 52%
    15:00 +25°C° 0 mm 4 m/S 757 mmHg 53%
    16:00 +23°C° 0 mm 4 m/S 756 mmHg 56%
    17:00 +22°C° 0 mm 4 m/S 756 mmHg 59%
    18:00 +22°C° 0 mm 3 m/S 756 mmHg 63%
    19:00 +20°C° 0 mm 3 m/S 756 mmHg 67%
    20:00 +19°C° 0 mm 3 m/S 756 mmHg 71%
    21:00 +17°C° 0 mm 3 m/S 757 mmHg 74%
    22:00 +17°C° 0 mm 2 m/S 756 mmHg 76%
    23:00 +16°C° 0 mm 2 m/S 756 mmHg 78%

    2 Juni, Dienstag

    Zeit Temperatur Niederschläge Wind Luftdruck Luftfeuchtigkeit
    00:00 +15°C° 0 mm 2 m/S 756 mmHg 79%
    01:00 +15°C° 0 mm 2 m/S 756 mmHg 80%
    02:00 +14°C° 0 mm 2 m/S 756 mmHg 81%
    03:00 +14°C° 0 mm 2 m/S 756 mmHg 81%
    04:00 +15°C° 0 mm 2 m/S 756 mmHg 77%
    05:00 +16°C° 0 mm 2 m/S 756 mmHg 72%
    06:00 +17°C° 0 mm 2 m/S 756 mmHg 68%
    07:00 +19°C° 0 mm 2 m/S 755 mmHg 61%
    08:00 +21°C° 0 mm 2 m/S 755 mmHg 54%
    09:00 +24°C° 0 mm 2 m/S 755 mmHg 47%
    10:00 +25°C° 0 mm 3 m/S 755 mmHg 44%
    11:00 +26°C° 0 mm 3 m/S 754 mmHg 41%
    12:00 +27°C° 0 mm 3 m/S 754 mmHg 38%
    13:00 +27°C° 0 mm 3 m/S 754 mmHg 39%
    14:00 +27°C° 0 mm 3 m/S 753 mmHg 40%
    15:00 +27°C° 0 mm 3 m/S 752 mmHg 40%
    16:00 +26°C° 0 mm 3 m/S 752 mmHg 46%
    17:00 +25°C° 0 mm 3 m/S 752 mmHg 51%
    18:00 +24°C° 0 mm 3 m/S 752 mmHg 56%
    19:00 +22°C° 0 mm 3 m/S 752 mmHg 60%
    20:00 +20°C° 0 mm 3 m/S 752 mmHg 64%
    21:00 +19°C° 0 mm 3 m/S 752 mmHg 67%
    22:00 +18°C° 0 mm 3 m/S 752 mmHg 70%
    23:00 +18°C° 0 mm 3 m/S 751 mmHg 72%

    3 Juni, Mittwoch

    Zeit Temperatur Niederschläge Wind Luftdruck Luftfeuchtigkeit
    00:00 +17°C° 0 mm 3 m/S 751 mmHg 74%
    01:00 +17°C° 0 mm 3 m/S 751 mmHg 73%
    02:00 +16°C° 0 mm 3 m/S 751 mmHg 72%
    03:00 +16°C° 0 mm 3 m/S 751 mmHg 70%
    04:00 +17°C° 0 mm 3 m/S 751 mmHg 68%
    05:00 +18°C° 0 mm 3 m/S 751 mmHg 66%
    06:00 +19°C° 0 mm 3 m/S 750 mmHg 63%
    07:00 +20°C° 0 mm 3 m/S 750 mmHg 57%
    08:00 +22°C° 0 mm 4 m/S 750 mmHg 51%
    09:00 +25°C° 0 mm 4 m/S 750 mmHg 45%
    10:00 +26°C° 0 mm 4 m/S 750 mmHg 42%
    11:00 +27°C° 0 mm 4 m/S 749 mmHg 39%
    12:00 +28°C° 0 mm 4 m/S 749 mmHg 36%
    13:00 +28°C° 0 mm 4 m/S 749 mmHg 36%
    14:00 +28°C° 0 mm 4 m/S 748 mmHg 37%
    15:00 +29°C° 0 mm 4 m/S 748 mmHg 37%
    16:00 +28°C° 0 mm 4 m/S 748 mmHg 42%
    17:00 +26°C° 0 mm 4 m/S 748 mmHg 48%
    18:00 +25°C° 0 mm 4 m/S 747 mmHg 53%
    19:00 +23°C° 0 mm 4 m/S 748 mmHg 57%
    20:00 +22°C° 0 mm 4 m/S 748 mmHg 61%
    21:00 +20°C° 0 mm 4 m/S 748 mmHg 64%
    22:00 +20°C° 0 mm 3 m/S 748 mmHg 64%
    23:00 +19°C° 0 mm 3 m/S 748 mmHg 63%
    Mehr zeigen